This is the latest recevied weather packets stored in our database for station/object IW2HNF-3. If no packets are shown the sender has not sent any weather packets the latest 10 day(s).
| Time | Temp. | Humidity | Pressure | Rain* | Wind** | Luminosity | Snow |
|---|---|---|---|---|---|---|---|
| 1788355227 | 30° C | 50% | 1017.1 hPa | 0 mm | - | - | - |
| 1788354651 | 30° C | 51% | 1017.2 hPa | 0 mm | - | - | - |
| 1788354028 | 29.44° C | 51% | 1017.3 hPa | 0 mm | - | - | - |
| 1788353452 | 29.44° C | 52% | 1017.3 hPa | 0 mm | - | - | - |
| 1788352827 | 29.44° C | 51% | 1017.4 hPa | 0 mm | - | - | - |
| 1788352251 | 29.44° C | 51% | 1017.6 hPa | 0 mm | - | - | - |
| 1788351628 | 29.44° C | 51% | 1017.7 hPa | 0 mm | - | - | - |
| 1788351052 | 29.44° C | 53% | 1017.8 hPa | 0 mm | - | - | - |
| 1788350477 | 29.44° C | 53% | 1017.8 hPa | 0 mm | - | - | - |
| 1788349852 | 28.89° C | 54% | 1017.9 hPa | 0 mm | - | - | - |
| 1788349227 | 28.33° C | 54% | 1018 hPa | 0 mm | - | - | - |
| 1788348651 | 28.89° C | 54% | 1018.1 hPa | 0 mm | - | - | - |
| 1788348028 | 28.33° C | 54% | 1018.3 hPa | 0 mm | - | - | - |
| 1788347452 | 28.33° C | 54% | 1018.4 hPa | 0 mm | - | - | - |
| 1788346828 | 28.33° C | 54% | 1018.5 hPa | 0 mm | - | - | - |
| 1788346251 | 28.33° C | 54% | 1018.4 hPa | 0 mm | - | - | - |
| 1788345628 | 27.78° C | 55% | 1018.5 hPa | 0 mm | - | - | - |
| 1788345052 | 27.78° C | 54% | 1018.7 hPa | 0 mm | - | - | - |
| 1788344428 | 28.33° C | 54% | 1018.8 hPa | 0 mm | - | - | - |
| 1788343852 | 28.33° C | 55% | 1018.8 hPa | 0 mm | - | - | - |
| 1788343276 | 27.22° C | 57% | 1018.9 hPa | 0 mm | - | - | - |
| 1788342652 | 27.22° C | 57% | 1019 hPa | 0 mm | - | - | - |
| 1788342028 | 27.22° C | 57% | 1019 hPa | 0 mm | - | - | - |
| 1788341452 | 27.22° C | 58% | 1018.9 hPa | 0 mm | - | - | - |
| 1788340828 | 26.67° C | 58% | 1019 hPa | 0 mm | - | - | - |
* Rain latest hour (hover to see other rain measurements)
** Current wind speed in m/s (hover to see current wind gust speed)